EWG8LQ EDDL-EGNT

Flight info

Callsign EWG8LQ
Flight time N/A
Altitude 38000
Route SONEB6Z/05R SONEB P64 TENLI L602 SPY DCT MIMVA L602 NALAX L46 RIMTO
Aircraft A320/M-SDE3FGHIRWY/LB1

Departure

Time 2026-05-06 10:46
Airport Düsseldorf Airport (EDDL)

Arrival

Time N/A
Airport Newcastle International Airport (EGNT)
Time Latitude Longitude Altitude Speed Heading
2026-05-06 09:56 51.28150 6.76545 129 ft 0 kts 96°
2026-05-06 10:32 51.28151 6.76527 123 ft 4 kts 96°
2026-05-06 10:32 51.28154 6.76484 124 ft 4 kts 100°
2026-05-06 10:32 51.28162 6.76444 124 ft 4 kts 127°
2026-05-06 10:33 51.28177 6.76430 123 ft 4 kts 186°
2026-05-06 10:33 51.28204 6.76434 124 ft 4 kts 184°
2026-05-06 10:33 51.28231 6.76439 126 ft 4 kts 202°
2026-05-06 10:33 51.28247 6.76458 122 ft 4 kts 232°
2026-05-06 10:34 51.28263 6.76493 123 ft 4 kts 232°
2026-05-06 10:34 51.28280 6.76527 122 ft 4 kts 232°
2026-05-06 10:34 51.28296 6.76561 123 ft 4 kts 232°
2026-05-06 10:34 51.28313 6.76595 121 ft 4 kts 232°
2026-05-06 10:35 51.28318 6.76607 123 ft 0 kts 233°
2026-05-06 10:39 51.28316 6.76601 122 ft 2 kts 233°
2026-05-06 10:39 51.28305 6.76579 124 ft 2 kts 233°
2026-05-06 10:39 51.28304 6.76576 124 ft 1 kts 233°
2026-05-06 10:40 51.28295 6.76550 123 ft 4 kts 251°
2026-05-06 10:40 51.28308 6.76488 122 ft 7 kts 308°
2026-05-06 10:40 51.28321 6.76439 122 ft 7 kts 271°
2026-05-06 10:40 51.28279 6.76334 122 ft 11 kts 232°
2026-05-06 10:41 51.28234 6.76242 127 ft 13 kts 232°
2026-05-06 10:41 51.28173 6.76113 129 ft 14 kts 233°
2026-05-06 10:41 51.28117 6.75996 127 ft 14 kts 233°
2026-05-06 10:41 51.28052 6.75859 128 ft 17 kts 233°
2026-05-06 10:42 51.27983 6.75714 126 ft 14 kts 232°
2026-05-06 10:42 51.27924 6.75590 127 ft 16 kts 233°
2026-05-06 10:42 51.27850 6.75432 125 ft 17 kts 234°
2026-05-06 10:42 51.27844 6.75350 121 ft 7 kts 307°
2026-05-06 10:43 51.27871 6.75325 124 ft 2 kts 333°
2026-05-06 10:43 51.27875 6.75322 122 ft 0 kts 333°
2026-05-06 10:44 51.27891 6.75309 125 ft 6 kts 333°
2026-05-06 10:44 51.27941 6.75269 123 ft 8 kts 333°
2026-05-06 10:44 51.27982 6.75255 123 ft 4 kts 12°
2026-05-06 10:45 51.27994 6.75269 120 ft 3 kts 43°
2026-05-06 10:45 51.28000 6.75283 122 ft 0 kts 52°
2026-05-06 10:46 51.28037 6.75359 124 ft 33 kts 52°
2026-05-06 10:46 51.28328 6.75967 127 ft 102 kts 53°
2026-05-06 10:46 51.28877 6.77105 145 ft 153 kts 48°
2026-05-06 10:46 51.29524 6.78465 825 ft 154 kts 50°
2026-05-06 10:47 51.30164 6.79849 1547 ft 161 kts 50°
2026-05-06 10:47 51.30870 6.81384 1966 ft 179 kts 51°
2026-05-06 10:47 51.31625 6.83021 2519 ft 187 kts 51°
2026-05-06 10:47 51.32434 6.84744 2932 ft 204 kts 52°
2026-05-06 10:48 51.33368 6.86663 3181 ft 234 kts 51°
2026-05-06 10:48 51.34511 6.88716 3481 ft 256 kts 40°
2026-05-06 10:48 51.36002 6.90326 3885 ft 262 kts 25°
2026-05-06 10:48 51.37718 6.91201 4406 ft 263 kts
2026-05-06 10:49 51.39546 6.91642 5364 ft 268 kts
2026-05-06 10:49 51.41405 6.92101 6301 ft 273 kts
2026-05-06 10:49 51.43300 6.92600 7135 ft 280 kts
2026-05-06 10:49 51.45244 6.93124 7937 ft 287 kts
2026-05-06 10:50 51.47235 6.93669 8800 ft 293 kts
2026-05-06 10:50 51.49265 6.94135 9650 ft 297 kts
2026-05-06 10:50 51.51335 6.93934 10396 ft 301 kts 348°
2026-05-06 10:50 51.53481 6.93334 10714 ft 325 kts 348°
2026-05-06 10:51 51.55736 6.92687 11134 ft 340 kts 348°
2026-05-06 10:51 51.58091 6.92016 11855 ft 346 kts 348°
2026-05-06 10:51 51.60477 6.91344 12650 ft 350 kts 348°
2026-05-06 10:51 51.62885 6.90673 13469 ft 354 kts 348°
2026-05-06 10:52 51.65329 6.89989 14092 ft 358 kts 348°
2026-05-06 10:52 51.67786 6.89300 14575 ft 359 kts 348°
2026-05-06 10:52 51.70265 6.88607 15018 ft 363 kts 348°
2026-05-06 10:52 51.72743 6.87835 15266 ft 363 kts 347°
2026-05-06 10:53 51.75213 6.86940 15514 ft 364 kts 345°
2026-05-06 10:53 51.77682 6.85974 15956 ft 367 kts 345°
2026-05-06 10:53 51.80136 6.84991 16683 ft 370 kts 344°
2026-05-06 10:53 51.82647 6.83987 17357 ft 373 kts 345°
2026-05-06 10:54 51.85175 6.82992 18031 ft 376 kts 346°
2026-05-06 10:54 51.87733 6.82008 18615 ft 380 kts 347°
2026-05-06 10:54 51.90327 6.81021 19150 ft 385 kts 347°
2026-05-06 10:54 51.92945 6.80028 19714 ft 388 kts 347°
2026-05-06 10:55 51.95581 6.79025 20322 ft 391 kts 347°
2026-05-06 10:55 51.98221 6.77944 20924 ft 393 kts 342°
2026-05-06 10:55 52.00736 6.76171 21468 ft 396 kts 330°
2026-05-06 10:55 52.02980 6.73663 22027 ft 399 kts 319°
2026-05-06 10:56 52.04931 6.70451 22614 ft 401 kts 308°
2026-05-06 10:56 52.06575 6.66786 23214 ft 403 kts 304°
2026-05-06 10:56 52.08202 6.63055 23714 ft 406 kts 304°
2026-05-06 10:56 52.09839 6.59294 24137 ft 409 kts 304°
2026-05-06 10:57 52.11483 6.55508 24557 ft 412 kts 304°
2026-05-06 10:57 52.13144 6.51684 24940 ft 415 kts 304°
2026-05-06 10:57 52.14815 6.47827 25335 ft 419 kts 304°
2026-05-06 10:57 52.16501 6.43931 25706 ft 422 kts 304°
2026-05-06 10:58 52.18199 6.40007 26081 ft 426 kts 303°
2026-05-06 10:58 52.19886 6.36097 26465 ft 429 kts 303°
2026-05-06 10:58 52.21604 6.32109 26859 ft 431 kts 304°
2026-05-06 10:58 52.23326 6.28097 27289 ft 432 kts 303°
2026-05-06 10:59 52.24817 6.23836 27682 ft 433 kts 293°
2026-05-06 10:59 52.25917 6.19241 28009 ft 436 kts 288°
2026-05-06 10:59 52.26923 6.14556 28366 ft 439 kts 288°
2026-05-06 10:59 52.27938 6.09847 28769 ft 441 kts 288°
2026-05-06 11:00 52.28948 6.05166 29127 ft 444 kts 288°
2026-05-06 11:00 52.29975 6.00404 29491 ft 446 kts 288°
2026-05-06 11:00 52.31011 5.95607 29844 ft 449 kts 288°
2026-05-06 11:00 52.32050 5.90789 30145 ft 451 kts 287°
2026-05-06 11:01 52.33090 5.85941 30453 ft 453 kts 287°
2026-05-06 11:01 52.34125 5.81085 30761 ft 454 kts 287°
2026-05-06 11:01 52.35162 5.76194 31070 ft 455 kts 287°
2026-05-06 11:01 52.36199 5.71291 31371 ft 457 kts 287°
2026-05-06 11:02 52.37234 5.66381 31745 ft 456 kts 287°
2026-05-06 11:02 52.38267 5.61482 32185 ft 454 kts 287°
2026-05-06 11:02 52.39295 5.56607 32630 ft 452 kts 287°
2026-05-06 11:02 52.40319 5.51750 33084 ft 450 kts 287°
2026-05-06 11:03 52.41318 5.46996 33513 ft 448 kts 287°
2026-05-06 11:03 52.42328 5.42175 33947 ft 446 kts 286°
2026-05-06 11:03 52.43331 5.37381 34288 ft 445 kts 286°
2026-05-06 11:03 52.44332 5.32586 34614 ft 444 kts 287°
2026-05-06 11:04 52.45327 5.27805 34928 ft 443 kts 286°
2026-05-06 11:04 52.46319 5.23019 35213 ft 443 kts 287°
2026-05-06 11:04 52.47307 5.18237 35494 ft 443 kts 287°
2026-05-06 11:04 52.48291 5.13464 35763 ft 442 kts 286°
2026-05-06 11:05 52.49262 5.08742 36033 ft 442 kts 286°
2026-05-06 11:05 52.50243 5.03966 36297 ft 442 kts 287°
2026-05-06 11:05 52.51218 4.99190 36566 ft 441 kts 286°
2026-05-06 11:05 52.52190 4.94415 36859 ft 440 kts 286°
2026-05-06 11:06 52.53159 4.89651 37128 ft 439 kts 286°
2026-05-06 11:06 52.54277 4.84973 37385 ft 441 kts 294°
2026-05-06 11:06 52.55800 4.80595 37616 ft 443 kts 299°
2026-05-06 11:06 52.57416 4.76283 37834 ft 443 kts 299°
2026-05-06 11:07 52.59029 4.71959 37898 ft 443 kts 299°
2026-05-06 11:07 52.62211 4.63370 37905 ft 443 kts 299°
2026-05-06 11:08 52.65400 4.54713 37907 ft 442 kts 299°
2026-05-06 11:08 52.68588 4.46038 37917 ft 442 kts 298°
2026-05-06 11:09 52.71759 4.37375 37921 ft 441 kts 298°
2026-05-06 11:09 52.74907 4.28769 37918 ft 441 kts 298°
2026-05-06 11:10 52.78069 4.20098 37928 ft 441 kts 298°
2026-05-06 11:10 52.81220 4.11407 37945 ft 441 kts 298°
2026-05-06 11:11 52.84365 4.02707 37957 ft 441 kts 298°
2026-05-06 11:11 52.86973 3.95460 37954 ft 441 kts 298°
2026-05-06 11:12 52.90617 3.85321 37952 ft 441 kts 298°
2026-05-06 11:12 52.93740 3.76584 37966 ft 441 kts 298°
2026-05-06 11:13 52.96330 3.69311 37973 ft 441 kts 298°
2026-05-06 11:13 52.99446 3.60540 37983 ft 441 kts 298°
2026-05-06 11:14 53.02557 3.51762 37993 ft 441 kts 298°
2026-05-06 11:14 53.05658 3.42993 37991 ft 440 kts 298°
2026-05-06 11:15 53.08724 3.34258 37988 ft 440 kts 296°
2026-05-06 11:15 53.10829 3.24825 37987 ft 434 kts 279°
2026-05-06 11:16 53.12114 3.15021 37986 ft 434 kts 280°
2026-05-06 11:16 53.16567 2.81233 37995 ft 433 kts 280°
2026-05-06 11:17 53.21558 2.42290 38009 ft 431 kts 280°